Lamar, CO

7:51 PM MDT on March 29, 2017 (GMT -0600)
Lamar Municipal

Weather History for KLAA - December, 2013

Change the Weather History Date:

Sunday, December 1, 2013

  Actual Average Record
Temperature  
Mean Temperature 40 °F 34 °F  
Max Temperature 60 °F 49 °F 75 °F (1998)
Min Temperature 20 °F 18 °F 3 °F (1985)
Degree Days  
Heating Degree Days 25 32  
Month to date heating degree days 25 32  
Since 1 July heating degree days 1093 1248  
Cooling Degree Days 0 0  
Month to date cooling degree days 0 0  
Year to date cooling degree days 1568 1121  
Moisture  
Dew Point 21 °F    
Average Humidity 56    
Maximum Humidity 92    
Minimum Humidity 20    
Precipitation  
Precipitation 0.00 in 0.02 in 0.25 in (1936)
Month to date precipitation 0.00  
Year to date precipitation 10.32  
Sea Level Pressure  
Sea Level Pressure 30.03 in    
Wind  
Wind Speed 7 mph (WSW)    
Max Wind Speed 14 mph    
Max Gust Speed 16 mph    
Visibility 10 miles    
Events      
T = Trace of Precipitation, MM = Missing Value Source: NWS Daily Summary

Daily Weather History Graph

Daily Weather History Graph

Search for Another Location

Airport or City:

Trip Planner

Search our weather history database for the weather conditions in past years. The results will help you decide how hot, cold, wet, or windy it might be!

Date:

Astronomy

Dec. 01, 2013 Rise Set
Actual Time 6:48 AM MST 4:31 PM MST
Civil Twilight 6:19 AM MST 5:00 PM MST
Nautical Twilight 5:46 AM MST 5:32 PM MST
Astronomical Twilight 5:14 AM MST 6:04 PM MST
Moon 5:10 AM MST (12/1) 3:42 PM MST (12/1)
Length of Visible Light 10h 41m
Length of Day
9h 42m
Waning Crescent, 2% of the Moon is Illuminated
Dec 1
Waning Crescent
Dec 2
New
Dec 9
First Quarter
Dec 17
Full
Dec 25
Last Quarter

Hourly Weather History & Observations

Time (MST) Temp. Windchill Dew Point Humidity Pressure Visibility Wind Dir Wind Speed Gust Speed Precip Events Conditions
12:53 AM 21.9 °F - 19.0 °F 89% 30.13 in 10.0 mi Calm Calm - N/A   Clear
1:53 AM 24.1 °F 19.7 °F 19.9 °F 84% 30.11 in 10.0 mi WSW 3.5 mph - N/A   Clear
2:53 AM 21.9 °F 12.5 °F 18.0 °F 85% 30.11 in 10.0 mi SSW 8.1 mph - N/A   Clear
3:53 AM 21.0 °F 16.2 °F 18.0 °F 88% 30.11 in 10.0 mi WNW 3.5 mph - N/A   Clear
4:53 AM 21.9 °F 14.5 °F 19.0 °F 89% 30.12 in 10.0 mi WNW 5.8 mph - N/A   Clear
5:53 AM 24.1 °F 18.2 °F 19.9 °F 84% 30.13 in 10.0 mi SSW 4.6 mph - N/A   Clear
6:53 AM 21.9 °F 15.7 °F 18.0 °F 85% 30.15 in 10.0 mi West 4.6 mph - N/A   Clear
7:53 AM 26.1 °F 17.6 °F 21.0 °F 81% 30.17 in 10.0 mi West 8.1 mph - N/A   Clear
8:53 AM 33.1 °F 25.5 °F 24.1 °F 70% 30.14 in 10.0 mi WSW 9.2 mph - N/A   Clear
9:53 AM 39.9 °F 32.9 °F 24.1 °F 53% 30.15 in 10.0 mi WNW 11.5 mph - N/A   Clear
10:53 AM 46.9 °F - 24.1 °F 41% 30.12 in 10.0 mi West 8.1 mph - N/A   Clear
11:53 AM 53.1 °F - 23.0 °F 31% 30.07 in 10.0 mi WNW 9.2 mph - N/A   Clear
12:53 PM 57.0 °F - 21.9 °F 26% 30.02 in 10.0 mi WSW 5.8 mph - N/A   Clear
1:53 PM 60.1 °F - 19.9 °F 21% 29.98 in 9.0 mi West 8.1 mph - N/A   Clear
2:53 PM 60.1 °F - 19.9 °F 21% 29.96 in 10.0 mi WSW 6.9 mph - N/A   Clear
3:53 PM 55.9 °F - 21.9 °F 27% 29.96 in 10.0 mi SSW 8.1 mph - N/A   Clear
4:53 PM 41.0 °F 34.7 °F 23.0 °F 49% 29.98 in 10.0 mi SSW 10.4 mph - N/A   Clear
5:53 PM 37.9 °F 31.5 °F 24.1 °F 57% 29.98 in 10.0 mi South 9.2 mph - N/A   Clear
6:53 PM 35.1 °F 27.4 °F 24.1 °F 64% 29.95 in 10.0 mi SSW 10.4 mph - N/A   Clear
7:53 PM 33.1 °F 24.9 °F 23.0 °F 66% 29.92 in 10.0 mi SSW 10.4 mph - N/A   Clear
8:53 PM 30.9 °F 27.5 °F 21.9 °F 69% 29.91 in 10.0 mi SSW 3.5 mph - N/A   Clear
9:53 PM 30.0 °F 22.4 °F 21.9 °F 72% 29.87 in 10.0 mi SSW 8.1 mph - N/A   Clear
10:53 PM 28.0 °F 19.3 °F 21.0 °F 75% 29.83 in 10.0 mi SSW 9.2 mph - N/A   Clear
11:53 PM 34.0 °F 27.2 °F 23.0 °F 64% 29.79 in 10.0 mi WSW 8.1 mph - N/A   Clear